GW3250 Weather Reports


time (UTC)temp
F
wind
direction
speed
knots
gust
knots
rain 1hr
in
rain 24hr
in
rain mn
in
humidity
%
barometer
mb
20260507220518 55 66 2.6 2.6 0.00 0.01 0.01 45 1005.7
20260507220015 55 183 0.9 0.9 0.00 0.01 0.01 46 1005.7
20260507215511 54 125 0.9 0.9 0.00 0.01 0.01 48 1005.9
20260507215009 55 201 0.0 0.9 0.00 0.01 0.01 47 1005.9
20260507214506 56 175 0.9 0.9 0.00 0.01 0.01 45 1005.7
20260507214001 56 227 2.6 2.6 0.00 0.01 0.01 43 1006.0
20260507213458 55 209 1.7 1.7 0.00 0.01 0.01 46 1005.7
20260507212955 55 177 2.6 3.5 0.00 0.01 0.01 47 1006.0
20260507212451 55 183 1.7 1.7 0.00 0.01 0.01 47 1006.0
20260507211948 55 184 0.9 1.7 0.00 0.01 0.01 45 1005.8
20260507211444 55 132 1.7 1.7 0.00 0.01 0.01 47 1006.0
20260507210941 55 236 1.7 1.7 0.00 0.01 0.01 46 1005.9
20260507210438 55 85 2.6 3.5 0.00 0.01 0.01 44 1006.0
20260507205934 56 142 0.9 0.9 0.00 0.01 0.01 44 1005.8
20260507205432 58 219 2.6 2.6 0.00 0.01 0.01 42 1005.6
20260507204927 58 199 1.7 2.6 0.00 0.01 0.01 40 1005.7
20260507204419 56 223 3.5 5.2 0.00 0.01 0.01 41 1005.6
20260507203916 56 164 0.9 1.7 0.00 0.01 0.01 45 1005.5
20260507203414 58 320 2.6 2.6 0.00 0.01 0.01 40 1005.7
20260507202910 60 209 3.5 6.1 0.00 0.01 0.01 40 1005.7
20260507202401 57 184 1.7 2.6 0.00 0.01 0.01 44 1005.9
20260507201856 55 95 0.9 0.9 0.00 0.01 0.01 46 1005.6
20260507201352 54 32 3.5 3.5 0.00 0.01 0.01 45 1006.0
20260507200849 55 193 0.9 0.9 0.00 0.01 0.01 45 1005.9
20260507200345 55 136 1.7 1.7 0.00 0.01 0.01 43 1005.9
20260507195841 56 231 0.9 1.7 0.00 0.01 0.01 43 1005.7
20260507195338 56 265 2.6 5.2 0.00 0.01 0.01 45 1005.7
20260507194836 58 204 0.9 1.7 0.00 0.01 0.01 44 1005.8
20260507194332 59 170 2.6 3.5 0.00 0.01 0.01 39 1006.0
20260507193828 59 14 2.6 3.5 0.00 0.01 0.01 39 1006.1
20260507193326 59 160 0.9 0.9 0.00 0.01 0.01 41 1006.2
20260507192821 58 219 0.9 0.9 0.00 0.01 0.01 40 1006.1
20260507192318 59 94 1.7 1.7 0.00 0.01 0.01 41 1005.9
20260507191815 57 55 1.7 2.6 0.00 0.01 0.01 43 1006.0
20260507191311 57 269 3.5 3.5 0.00 0.01 0.01 43 1006.0
20260507190808 55 206 0.0 0.0 0.00 0.01 0.01 47 1006.3
20260507190306 54 177 0.9 1.7 0.00 0.01 0.01 48 1006.4
20260507185804 54 244 2.6 2.6 0.00 0.01 0.01 47 1006.5
20260507185255 55 26 1.7 2.6 0.00 0.01 0.01 46 1006.7
20260507184752 55 222 2.6 2.6 0.00 0.01 0.01 44 1006.9
20260507184250 55 201 0.0 0.9 0.00 0.01 0.01 43 1006.7
20260507183747 56 238 1.7 2.6 0.00 0.01 0.01 44 1006.7
20260507183243 58 250 5.2 7.0 0.00 0.01 0.01 41 1006.6
20260507182741 59 205 2.6 3.5 0.00 0.01 0.01 42 1007.0
20260507182236 59 230 4.3 6.1 0.00 0.01 0.01 40 1006.9
20260507181734 55 213 2.6 3.5 0.00 0.01 0.01 45 1006.8
20260507181230 54 80 0.9 1.7 0.00 0.01 0.01 43 1006.7
20260507180726 55 53 0.9 1.7 0.00 0.01 0.01 46 1006.9
20260507180223 57 168 4.3 5.2 0.00 0.01 0.01 41 1007.2
20260507175719 58 228 2.6 2.6 0.00 0.01 0.01 42 1007.2
20260507175216 57 88 0.9 0.9 0.00 0.01 0.01 45 1007.0
20260507174714 58 5 0.9 1.7 0.00 0.01 0.01 45 1007.0
20260507174211 58 302 0.9 0.9 0.00 0.01 0.01 44 1006.9
20260507173709 58 224 1.7 2.6 0.00 0.01 0.01 41 1007.3
20260507173205 57 116 1.7 2.6 0.00 0.01 0.01 44 1007.2
20260507172702 56 128 1.7 1.7 0.00 0.01 0.01 46 1007.5
20260507172159 58 221 1.7 3.5 0.00 0.01 0.01 41 1007.4
20260507171658 55 82 0.0 0.9 0.00 0.01 0.01 47 1007.6
20260507171156 57 239 5.2 7.0 0.00 0.01 0.01 42 1007.4
20260507170653 56 132 0.9 1.7 0.00 0.01 0.01 44 1007.6
20260507170150 57 216 5.2 7.8 0.00 0.01 0.01 44 1007.7
20260507165646 55 215 1.7 3.5 0.00 0.01 0.01 50 1007.6
20260507165142 57 15 1.7 2.6 0.00 0.01 0.01 46 1007.9
20260507164638 57 229 1.7 2.6 0.00 0.01 0.01 51 1007.8
20260507164135 56 148 2.6 2.6 0.00 0.01 0.01 42 1007.9
20260507163627 54 201 1.7 2.6 0.00 0.01 0.01 49 1007.9
20260507163125 56 74 1.7 1.7 0.00 0.01 0.01 45 1008.1
20260507162620 55 115 2.6 5.2 0.00 0.01 0.01 47 1008.2
20260507162117 56 236 4.3 6.1 0.00 0.01 0.01 45 1008.0
20260507161613 56 254 1.7 2.6 0.00 0.01 0.01 50 1007.9
20260507161110 54 196 0.9 0.9 0.00 0.01 0.01 53 1008.1
20260507160606 54 212 2.6 3.5 0.00 0.01 0.01 48 1008.3
20260507155558 56 52 1.7 1.7 0.00 0.01 0.01 48 1008.4
20260507155055 54 116 0.9 0.9 0.00 0.01 0.01 50 1008.4
20260507154552 54 200 0.9 0.9 0.00 0.01 0.01 45 1008.6
20260507154049 53 241 1.7 1.7 0.00 0.01 0.01 54 1008.5
20260507153546 53 280 1.7 2.6 0.00 0.01 0.01 56 1008.4
20260507153042 52 144 0.0 0.9 0.00 0.01 0.01 51 1008.7
20260507152538 54 224 2.6 2.6 0.00 0.01 0.01 47 1008.8
20260507152034 54 64 3.5 5.2 0.00 0.01 0.01 48 1008.7
20260507151530 54 24 3.5 7.0 0.00 0.01 0.01 47 1008.9
20260507151028 53 237 5.2 6.1 0.00 0.01 0.01 50 1009.0
20260507150524 53 197 1.7 2.6 0.00 0.01 0.01 49 1008.9
20260507150016 53 80 0.9 0.9 0.00 0.01 0.01 50 1008.9
20260507145510 54 117 1.7 1.7 0.00 0.01 0.01 50 1008.9
20260507145008 52 135 1.7 2.6 0.00 0.01 0.01 49 1008.8
20260507144505 53 232 3.5 3.5 0.00 0.01 0.01 56 1008.8
20260507144003 52 187 1.7 2.6 0.00 0.01 0.01 58 1009.0
20260507143500 52 215 4.3 6.1 0.00 0.01 0.01 50 1008.9
20260507142956 51 196 1.7 2.6 0.00 0.01 0.01 53 1008.9
20260507142452 51 43 2.6 3.5 0.00 0.01 0.01 57 1009.0
20260507141949 51 161 0.0 0.9 0.00 0.01 0.01 51 1009.0
20260507141445 51 194 0.9 1.7 0.00 0.01 0.01 51 1009.2
20260507140942 52 150 1.7 1.7 0.00 0.01 0.01 52 1009.0
20260507140438 50 150 0.9 1.7 0.00 0.01 0.01 58 1009.2
20260507135936 50 51 1.7 1.7 0.00 0.01 0.01 55 1009.4
20260507135433 48 214 0.0 0.9 0.00 0.01 0.01 59 1009.3
20260507134930 50 245 1.7 2.6 0.00 0.01 0.01 57 1009.3
20260507134427 49 185 1.7 1.7 0.00 0.01 0.01 63 1009.3
20260507133922 49 19 2.6 2.6 0.00 0.01 0.01 57 1009.3
20260507133418 49 143 2.6 3.5 0.00 0.01 0.01 55 1009.3
20260507132912 48 213 1.7 1.7 0.00 0.01 0.01 58 1009.3
20260507132407 48 84 1.7 2.6 0.00 0.01 0.01 54 1009.6
20260507131906 48 233 2.6 3.5 0.00 0.01 0.01 57 1009.5
20260507131401 47 202 1.7 2.6 0.00 0.01 0.01 58 1009.3
20260507130858 47 141 2.6 7.8 0.00 0.01 0.01 62 1009.1
20260507130354 48 74 2.6 3.5 0.00 0.01 0.01 58 1009.1
20260507125854 47 223 2.6 2.6 0.00 0.01 0.01 60 1009.3
20260507125351 47 252 1.7 2.6 0.00 0.01 0.01 62 1009.0
20260507124849 47 50 1.7 2.6 0.00 0.01 0.01 62 1009.1
20260507124344 46 158 0.9 0.9 0.00 0.01 0.01 63 1009.1
20260507123843 46 83 0.0 0.9 0.00 0.01 0.01 62 1009.0
20260507123340 46 86 2.6 5.2 0.00 0.01 0.01 65 1009.1
20260507122836 45 175 0.9 0.9 0.00 0.01 0.01 70 1008.8
20260507122331 45 182 0.9 0.9 0.00 0.01 0.01 72 1008.8
20260507121828 44 200 0.9 0.9 0.00 0.01 0.01 71 1008.8
20260507121324 44 125 0.9 1.7 0.00 0.01 0.01 69 1009.0
20260507120820 45 104 0.0 0.0 0.05 0.01 0.01 70 1008.9
20260507120317 44 241 4.3 6.1 0.05 0.01 0.01 69 1009.0
20260507115813 44 144 0.0 0.9 0.00 0.00 0.00 72 1008.8
20260507115309 44 160 0.9 1.7 0.00 0.00 0.00 73 1008.9
20260507114804 43 174 0.0 0.9 0.00 0.00 0.00 75 1008.9
20260507114302 42 183 0.9 1.7 0.00 0.00 0.00 77 1008.7
20260507113800 42 240 2.6 2.6 0.00 0.00 0.00 76 1008.7
20260507113256 42 170 0.0 0.9 0.00 0.00 0.00 78 1008.8
20260507112754 42 121 0.9 0.9 0.00 0.00 0.00 79 1008.5
20260507112251 42 182 0.0 0.0 0.00 0.00 0.00 82 1008.6
20260507111749 41 121 0.9 0.9 0.00 0.00 0.00 83 1008.7
20260507111245 41 163 0.0 0.9 0.00 0.00 0.00 86 1008.7
20260507110741 41 160 0.9 0.9 0.00 0.00 0.00 87 1008.6
20260507110238 41 125 0.9 1.7 0.00 0.00 0.00 86 1008.2
20260507105734 41 210 2.6 3.5 0.00 0.00 0.00 88 1008.2
20260507105230 41 169 1.7 1.7 0.00 0.00 0.00 90 1008.4
20260507104728 41 175 0.9 0.9 0.00 0.00 0.00 90 1008.4
20260507104225 41 192 1.7 1.7 0.00 0.00 0.00 90 1008.3
20260507103720 41 71 0.9 0.9 0.00 0.00 0.00 90 1008.0
20260507103217 41 155 0.0 0.9 0.00 0.00 0.00 91 1007.9
20260507102713 42 187 0.9 0.9 0.00 0.00 0.00 92 1007.9
20260507102210 42 297 0.9 1.7 0.00 0.00 0.00 93 1007.9
20260507101706 42 173 0.9 0.9 0.00 0.00 0.00 94 1007.7
20260507101201 42 214 0.9 1.7 0.00 0.00 0.00 94 1007.7
20260507100659 42 234 5.2 7.8 0.00 0.00 0.00 95 1007.7
20260507100157 42 201 0.9 0.9 0.00 0.00 0.00 96 1007.7
20260507095655 42 197 1.7 1.7 0.00 0.00 0.00 97 1007.9
20260507095151 42 192 0.9 0.9 0.00 0.00 0.00 98 1007.8
20260507094648 42 193 0.9 1.7 0.00 0.00 0.00 98 1007.5
20260507094144 42 193 1.7 1.7 0.00 0.00 0.00 98 1007.7
20260507093642 42 193 0.9 0.9 0.00 0.00 0.00 98 1007.6
20260507093141 42 193 0.9 0.9 0.00 0.00 0.00 98 1007.3
20260507092637 42 193 0.9 0.9 0.00 0.00 0.00 98 1007.2
20260507092134 42 193 0.9 0.9 0.00 0.00 0.00 98 1007.2
20260507091630 42 188 0.9 0.9 0.00 0.00 0.00 98 1007.4
20260507091126 42 190 1.7 2.6 0.00 0.00 0.00 98 1007.4
20260507090622 42 182 0.9 0.9 0.00 0.00 0.00 97 1007.2
20260507090120 42 182 0.0 0.9 0.00 0.00 0.00 97 1007.5
20260507085616 43 186 1.7 1.7 0.00 0.00 0.00 97 1007.5
20260507085113 43 172 0.9 0.9 0.00 0.00 0.00 97 1007.3
20260507084610 43 177 0.9 0.9 0.00 0.00 0.00 96 1007.3
20260507084107 43 192 0.9 0.9 0.00 0.00 0.00 96 1007.3
20260507083603 43 192 0.9 0.9 0.00 0.00 0.00 96 1007.6
20260507083101 44 214 1.7 1.7 0.00 0.00 0.00 95 1007.5
20260507082556 44 197 0.9 1.7 0.00 0.00 0.00 95 1007.7
20260507082053 44 179 0.9 0.9 0.00 0.00 0.00 95 1007.6
20260507081549 44 150 0.9 0.9 0.00 0.00 0.00 95 1007.7
20260507081046 44 168 0.9 0.9 0.00 0.00 0.00 95 1008.2
20260507080541 44 123 0.9 1.7 0.00 0.00 0.00 95 1008.1
20260507080033 44 129 3.5 3.5 0.00 0.00 0.00 95 1008.0
20260507075528 45 164 0.9 0.9 0.00 0.00 0.00 95 1008.2
20260507075024 45 200 0.9 1.7 0.00 0.00 0.00 95 1008.0
20260507074521 45 205 0.9 1.7 0.00 0.00 0.00 95 1007.9
20260507074020 45 332 3.5 5.2 0.00 0.00 0.00 95 1008.0
20260507073516 45 173 0.9 0.9 0.00 0.00 0.00 96 1008.0
20260507073012 45 205 0.0 0.0 0.00 0.00 0.00 96 1008.2
20260507072510 45 205 0.9 0.9 0.00 0.00 0.00 95 1008.1
20260507072007 44 206 0.9 0.9 0.00 0.00 0.00 95 1007.9
20260507071504 44 203 0.9 0.9 0.00 0.00 0.00 95 1008.2
20260507071001 45 215 1.7 1.7 0.00 0.00 0.00 96 1008.1
20260507070458 44 215 0.9 0.9 0.00 0.00 0.00 95 1008.2
20260507065954 44 216 1.7 2.6 0.00 0.00 0.00 95 1008.0
20260507065451 44 214 0.9 0.9 0.00 0.00 0.00 96 1008.0
20260507064948 44 214 0.9 0.9 0.00 0.00 0.00 96 1007.9
20260507064447 45 214 1.7 1.7 0.00 0.00 0.00 96 1008.4
20260507063944 44 205 0.0 0.0 0.00 0.00 0.00 97 1007.7
20260507063441 45 204 0.9 0.9 0.00 0.00 0.00 97 1007.9
20260507062938 45 204 1.7 1.7 0.00 0.00 0.00 97 1007.6
20260507062435 45 184 1.7 1.7 0.00 0.00 0.00 97 1007.6
20260507061932 45 194 0.9 0.9 0.00 0.00 0.00 97 1007.7
20260507061430 45 200 1.7 1.7 0.00 0.00 0.00 97 1007.7
20260507060928 45 194 0.9 0.9 0.00 0.00 0.00 97 1007.8
20260507060425 45 194 0.9 0.9 0.00 0.00 0.00 97 1007.4
20260507055921 45 172 0.9 0.9 0.00 0.00 0.00 96 1007.8
20260507055416 45 193 1.7 1.7 0.00 0.00 0.00 96 1007.6
20260507054908 45 190 0.9 0.9 0.00 0.00 0.00 96 1007.5
20260507054404 45 160 0.9 0.9 0.00 0.00 0.00 95 1007.5
20260507053901 45 201 1.7 1.7 0.00 0.00 0.00 96 1006.8
20260507053359 45 176 0.9 0.9 0.00 0.00 0.00 96 1007.4
20260507052858 45 198 0.9 1.7 0.00 0.00 0.00 96 1007.0
20260507052354 45 156 0.9 0.9 0.00 0.00 0.00 96 1007.0
20260507051852 45 170 0.9 1.7 0.00 0.00 0.00 96 1007.0
20260507051349 45 178 0.9 1.7 0.00 0.00 0.00 95 1007.5
20260507050846 46 180 0.0 0.9 0.00 0.00 0.00 95 1007.2
20260507050342 46 144 0.9 0.9 0.00 0.00 0.00 94 1007.2
20260507045839 46 198 0.0 0.0 0.00 0.00 0.00 94 1007.8
20260507045336 46 213 0.0 0.0 0.00 0.00 0.00 94 1007.6
20260507044833 46 209 0.0 0.9 0.00 0.00 0.00 93 1007.9
20260507044329 46 189 0.9 0.9 0.00 0.00 0.00 93 1007.6
20260507043825 46 206 1.7 1.7 0.00 0.00 0.00 93 1007.9
20260507043322 46 199 0.9 0.9 0.00 0.00 0.00 94 1007.6
20260507042818 46 198 0.0 0.0 0.00 0.00 0.00 93 1007.7
20260507042314 46 199 0.0 0.0 0.00 0.00 0.00 93 1007.8
20260507041811 46 199 1.7 1.7 0.00 0.00 0.00 93 1008.0
20260507041308 46 173 0.0 0.0 0.00 0.00 0.00 93 1007.9
20260507040805 46 239 2.6 2.6 0.00 0.00 0.00 92 1007.9
20260507040301 46 218 0.9 1.7 0.00 0.00 0.00 93 1008.0
20260507035757 46 198 0.0 0.0 0.00 0.23 0.23 93 1007.9
20260507035252 46 193 1.7 2.6 0.00 0.23 0.23 92 1007.7
20260507034750 46 196 1.7 1.7 0.00 0.23 0.23 92 1007.5
20260507034247 46 194 0.9 0.9 0.00 0.23 0.23 92 1007.0
20260507033746 46 165 0.9 0.9 0.00 0.23 0.23 92 1007.7
20260507033242 46 190 1.7 1.7 0.00 0.23 0.23 93 1007.3
20260507032740 46 210 2.6 2.6 0.00 0.23 0.23 92 1007.2
20260507032236 47 195 0.9 0.9 0.00 0.23 0.23 92 1007.3
20260507031732 47 311 1.7 2.6 0.00 0.23 0.23 92 1007.4
20260507031229 47 188 1.7 2.6 0.00 0.23 0.23 92 1007.5
20260507030726 47 193 0.0 0.0 0.00 0.23 0.23 93 1007.5
20260507030224 47 178 0.9 0.9 0.00 0.23 0.23 94 1007.2
20260507025720 47 186 1.7 1.7 0.00 0.23 0.23 94 1007.2
20260507025217 47 196 0.9 0.9 0.00 0.23 0.23 95 1007.2
20260507024716 47 178 0.9 0.9 0.00 0.23 0.23 94 1007.7
20260507024213 47 210 1.7 1.7 0.00 0.23 0.23 94 1007.6
20260507023708 47 217 2.6 3.5 0.00 0.23 0.23 95 1007.5
20260507023205 48 186 1.7 1.7 0.00 0.23 0.23 95 1007.5
20260507022702 48 235 1.7 2.6 0.00 0.23 0.23 95 1007.8
20260507022158 48 236 2.6 2.6 0.00 0.23 0.23 94 1007.7
20260507021655 48 205 1.7 1.7 0.00 0.23 0.23 94 1007.5
20260507021150 48 203 0.9 0.9 0.00 0.23 0.23 95 1007.7
20260507020649 48 203 0.9 1.7 0.00 0.23 0.23 95 1008.2
20260507020144 48 130 1.7 2.6 0.00 0.23 0.23 95 1008.1
20260507015643 48 198 0.9 1.7 0.00 0.23 0.23 95 1008.1
20260507015140 48 219 1.7 1.7 0.00 0.23 0.23 95 1008.0
20260507014636 48 199 1.7 1.7 0.00 0.23 0.23 95 1007.9
20260507014132 48 215 1.7 2.6 0.00 0.23 0.23 95 1007.6
20260507013629 48 224 0.9 0.9 0.00 0.23 0.23 95 1007.8
20260507013126 48 210 0.9 0.9 0.00 0.23 0.23 94 1007.7
20260507012624 48 128 0.9 1.7 0.00 0.23 0.23 94 1007.6
20260507012119 48 225 0.9 1.7 0.00 0.23 0.23 94 1007.6
20260507011618 48 129 3.5 6.1 0.00 0.23 0.23 94 1007.7
20260507011113 49 222 0.0 0.0 0.00 0.23 0.23 94 1007.8
20260507010608 49 235 2.6 2.6 0.00 0.23 0.23 94 1007.8
20260507010104 48 313 1.7 2.6 0.00 0.23 0.23 93 1007.5
20260507005602 49 214 2.6 2.6 0.00 0.23 0.23 94 1007.3
20260507005058 49 210 1.7 3.5 0.00 0.23 0.23 93 1007.0
20260507004555 49 217 0.0 0.9 0.00 0.23 0.23 95 1007.2
20260507004053 49 246 5.2 6.1 0.00 0.23 0.23 94 1007.4
20260507003548 49 43 1.7 1.7 0.00 0.23 0.23 95 1007.4
20260507003043 50 213 1.7 2.6 0.00 0.23 0.23 95 1007.3
20260507002540 50 187 0.9 1.7 0.00 0.23 0.23 95 1007.0
20260507002036 50 218 3.5 3.5 0.00 0.23 0.23 94 1006.7
20260507001533 50 194 0.9 1.7 0.00 0.23 0.23 95 1006.6
20260507001031 50 184 0.0 0.9 0.00 0.23 0.23 94 1006.6
20260507000526 50 164 0.0 0.9 0.00 0.23 0.23 94 1006.6
20260507000016 50 202 0.9 1.7 0.00 0.23 0.23 93 1006.6
20260506235514 50 199 0.9 0.9 0.00 0.23 0.23 93 1006.8
20260506235010 50 194 3.5 3.5 0.00 0.23 0.23 93 1007.0
20260506234507 51 234 1.7 2.6 0.00 0.23 0.23 93 1006.5
20260506233959 51 238 0.0 0.9 0.00 0.23 0.23 92 1006.5
20260506233455 51 210 0.9 1.7 0.00 0.23 0.23 91 1006.4
20260506232951 51 201 2.6 2.6 0.00 0.23 0.23 92 1006.0
20260506232448 51 194 3.5 3.5 0.00 0.23 0.23 93 1006.0
20260506231944 51 30 1.7 1.7 0.00 0.23 0.23 93 1005.8
20260506231441 52 177 0.0 0.9 0.00 0.23 0.23 95 1005.9
20260506230938 53 114 1.7 2.6 0.00 0.23 0.23 96 1005.9
20260506230435 54 158 0.9 1.7 0.00 0.23 0.23 97 1005.4
20260506225931 54 170 0.0 0.9 0.00 0.23 0.23 96 1005.5
20260506225429 55 183 0.9 1.7 0.00 0.23 0.23 96 1005.4
20260506224926 55 198 0.9 1.7 0.00 0.23 0.23 94 1004.8
20260506224423 55 197 0.9 0.9 0.00 0.23 0.23 94 1005.0
20260506223919 56 155 0.9 0.9 0.00 0.23 0.23 95 1004.9
20260506223415 58 191 1.7 1.7 0.00 0.23 0.23 97 1004.7
20260506222912 59 129 1.7 2.6 0.00 0.23 0.23 98 1004.4
20260506222409 60 183 0.9 1.7 0.00 0.23 0.23 99 1004.2
20260506221906 60 203 0.9 1.7 0.00 0.23 0.23 99 1004.3
20260506221403 60 202 0.0 0.0 0.00 0.23 0.23 98 1003.8